STARLINK-1402, 45685

Orbit data source: Space-Track

STARLINK-1402, 45685 is a payload satellite owned by SpaceX/Seattle (US) in LEO that was launched on Thu, 04 Jun 2020 UTC via an FALCON 9 launch vehicle from the Air Force Eastern Test Range (AFETR). Payload-class satellites include a variety of spacecraft equipped with specific instruments for various scientific and technological missions. These include communications satellites like Starlink; space stations such as the ISS; scientific satellites like the Hubble; Earth observation satellites from companies like Planet Labs, Umbra, and HawkEye 360; GPS; miniature CubeSats for education and research; and military/defense satellites.

Loading next visibility...
Identifier
45685, 2020-035AE
Orbit
LEO
Country
Flag of USUS
Related business
Manufacturer
SpaceX/Seattle
Mission
Partially operational Commercial Communications
Bus & Motor
STARLINK, Unknown motor
Mass
260 kg wet, ~248 kg dry
Launch date (UTC)
2020-06-04 (6 years ago)
Launch vehicle
FALCON 9
Launch site
Air Force Eastern Test Range (AFETR)
Object type
Payload
Rocket body
Debris
Shape & HBR
Box + 1 Pan, 10.1 m
Radar Cross Section
13.562 m², Large (>1 m²)

Expand to show TLE details & history
Last TLE update: 9 hours ago

TLE from 9 hours ago
0 STARLINK-1402
1 45685U 20035AE  26035.91670139  .00101084  00000-0  24935-2 0  9999
2 45685  53.0501 178.8421 0005938 166.3764 119.4509 15.39728232  5829
Epoch: 2026-02-04T22:00Z
TLE epoch observation values (Epoch: 2026-02-04T22:00:03.000Z)
Latitude
-50.40048°
Longitude
9.03508°
Altitude
466.3 km
Speed
7.632 km/s
True Right ascension
07h 36m 29s
True Declination
-50° 13' 27"
Sunlit
Object was in daylight at epoch
Visualization orbit readout
Latitude
Unknown
Longitude
Unknown
Altitude
Unknown
Speed
Unknown
Apparent Right ascension
Unknown
Apparent Declination
Unknown
Sunlit
N/A
Visualization observer readout
Local Sidereal Time
08:45:17
Azimuth
Unknown
Elevation
Unknown
Doppler factor
Unknown
Orbital elements
Apogee altitude
451.24 km
Perigee altitude
443.135 km
Semi-major axis
6,825.325 km
Eccentricity
0.00059
Inclination
53.0501°
RAAN
178.8421°
Arg. of periapsis
166.3764°
True anomaly
119.51013°
Mean anomaly
119.4509°
Eccentric anomaly
119.48052°
Mean motion
3.84909 °/min
Orbital period
93.53 mins
BSTAR
0.0024935
Loading maneuver chart data...
Computing Atmospheric mass density...

Documentation

Showing up to 5 results
|